DW1345 Weather Reports


time (UTC)temp
C
wind
direction
speed
KPH
gust
KPH
rain 1hr
cm
rain 24hr
cm
rain mn
cm
humidity
%
barometer
mb
20260510130002 11 238 4.8 0.0 0.00 0.00 0.03 54 1004.8
20260510124620 11 240 4.8 0.0 0.00 0.00 0.03 49 1004.9
20260510123101 12 203 6.4 0.0 0.00 0.00 0.03 49 1004.9
20260510121558 12 193 4.8 0.0 0.00 0.00 0.03 50 1005.0
20260510120056 12 217 3.2 0.0 0.00 0.00 0.03 47 1005.0
20260510114603 11 192 3.2 0.0 0.00 0.00 0.03 48 1005.2
20260510113050 11 184 3.2 0.0 0.00 0.00 0.03 49 1005.1
20260510111549 11 182 4.8 0.0 0.00 0.00 0.03 52 1005.0
20260510110047 10 185 6.4 0.0 0.00 0.00 0.03 51 1005.1
20260510104604 10 174 3.2 0.0 0.00 0.00 0.03 53 1005.2
20260510103049 11 170 4.8 0.0 0.00 0.00 0.03 52 1004.9
20260510101545 11 136 6.4 0.0 0.00 0.00 0.03 52 1005.1
20260510100052 10 138 6.4 0.0 0.00 0.00 0.03 54 1005.1
20260510094547 10 156 6.4 0.0 0.00 0.00 0.03 53 1005.4
20260510093041 10 188 8.0 0.0 0.00 0.00 0.03 55 1005.2
20260510091541 10 184 6.4 0.0 0.00 0.00 0.03 55 1005.4
20260510090042 10 153 6.4 0.0 0.00 0.00 0.03 57 1005.3
20260510084549 10 113 8.0 0.0 0.00 0.00 0.03 56 1005.2
20260510081535 11 175 8.0 0.0 0.00 0.00 0.03 53 1005.2
20260510080032 11 124 6.4 0.0 0.00 0.00 0.03 54 1005.4
20260510074530 11 184 8.0 0.0 0.00 0.00 0.03 54 1005.5
20260510073032 11 181 4.8 0.0 0.00 0.00 0.03 56 1005.4
20260510071539 10 169 6.4 0.0 0.00 0.00 0.03 58 1005.6
20260510070028 9 158 6.4 0.0 0.00 0.00 0.03 59 1005.6
20260510064526 9 140 3.2 0.0 0.00 0.00 0.03 60 1005.6
20260510063019 8 153 6.4 0.0 0.00 0.00 0.03 61 1005.7
20260510061515 8 175 3.2 0.0 0.00 0.00 0.03 63 1005.7
20260510060014 8 166 6.4 0.0 0.00 0.00 0.03 63 1005.6
20260510054515 8 93 6.4 0.0 0.00 0.00 0.03 64 1005.6
20260510053008 7 132 6.4 0.0 0.00 0.00 0.03 66 1005.8
20260510051512 7 121 8.0 0.0 0.00 0.00 0.03 67 1006.0
20260510050005 7 134 8.0 0.0 0.00 0.00 0.03 67 1006.1
20260510044503 7 169 6.4 0.0 0.00 0.00 0.03 67 1006.1
20260510043002 7 135 6.4 0.0 0.00 0.00 0.03 71 1006.1
20260510041611 7 96 12.9 0.0 0.00 0.00 0.03 72 1006.3
20260510040055 6 132 12.9 0.0 0.00 0.00 0.03 73 1006.6
20260510040026 6 103 12.9 0.0 0.00 0.00 0.03 73 1006.6
20260510034553 6 103 12.9 0.0 0.00 0.00 0.03 74 1006.7
20260510033055 6 115 11.3 0.0 0.00 0.00 0.03 73 1006.9
20260510031556 6 81 9.7 0.0 0.00 0.00 0.03 75 1006.9
20260510030052 6 132 8.0 0.0 0.00 0.00 0.03 76 1007.4
20260510024554 5 119 9.7 0.0 0.00 0.00 0.03 79 1007.5
20260510023043 5 89 11.3 0.0 0.00 0.00 0.03 81 1007.7
20260510021542 5 142 9.7 0.0 0.00 0.00 0.03 82 1007.8
20260510020048 5 105 11.3 0.0 0.00 0.00 0.03 83 1008.1
20260510014539 5 82 11.3 0.0 0.00 0.00 0.03 85 1008.3
20260510013035 5 118 8.0 0.0 0.00 0.00 0.03 86 1008.7
20260510011537 5 84 9.7 0.0 0.00 0.00 0.03 88 1008.9
20260510010038 5 73 8.0 0.0 0.00 0.00 0.03 90 1009.1
20260510004527 5 97 9.7 0.0 0.00 0.00 0.03 91 1009.2
20260510003025 5 123 9.7 0.0 0.00 0.00 0.03 91 1009.5
20260510001524 4 96 4.8 0.0 0.00 0.00 0.03 91 1009.7
20260510000020 4 59 3.2 0.0 0.00 0.00 0.03 91 1009.8
20260509234518 4 71 3.2 0.0 0.00 0.00 0.03 91 1009.9
20260509233016 4 53 4.8 0.0 0.00 0.00 0.03 91 1010.2
20260509231526 4 51 6.4 0.0 0.00 0.00 0.03 91 1010.4
20260509230012 4 41 4.8 0.0 0.00 0.00 0.03 91 1010.7
20260509224512 4 37 4.8 0.0 0.00 0.00 0.03 91 1010.8
20260509223011 4 30 4.8 0.0 0.00 0.00 0.03 91 1010.5
20260509221518 4 33 3.2 0.0 0.00 0.00 0.03 91 1011.2
20260509220003 4 12 3.2 0.0 0.00 0.00 0.33 91 1011.4
20260509214602 5 5 1.6 0.0 0.00 0.00 0.33 90 1011.4
20260509213103 5 281 0.0 0.0 0.00 0.00 0.33 91 1011.7
20260509211559 4 281 0.0 0.0 0.00 0.00 0.33 91 1011.8
20260509210104 4 282 1.6 0.0 0.00 0.00 0.33 91 1011.8
20260509204602 4 285 3.2 0.0 0.00 0.00 0.33 90 1012.2
20260509203059 4 263 3.2 0.0 0.00 0.00 0.33 90 1012.3
20260509201556 5 269 4.8 0.0 0.00 0.00 0.28 90 1012.3
20260509200059 5 269 6.4 0.0 0.00 0.00 0.25 90 1012.4
20260509194551 5 281 8.0 0.0 0.00 0.00 0.23 88 1012.3
20260509193059 6 304 9.7 0.0 0.00 0.00 0.18 86 1012.1
20260509191607 7 116 0.0 0.0 0.00 0.00 0.10 86 1011.7
20260509190054 7 116 0.0 0.0 0.00 0.00 0.10 86 1011.5
20260509184544 7 116 0.0 0.0 0.00 0.00 0.08 85 1011.5
20260509183043 7 117 1.6 0.0 0.00 0.00 0.08 84 1011.7
20260509181540 7 121 6.4 0.0 0.00 0.00 0.08 84 1011.9
20260509180038 7 105 6.4 0.0 0.00 0.00 0.08 83 1011.9
20260509174538 7 86 6.4 0.0 0.00 0.00 0.05 82 1012.1
20260509173050 7 121 6.4 0.0 0.00 0.00 0.05 81 1012.1
20260509171542 8 107 8.0 0.0 0.00 0.00 0.05 80 1012.4
20260509170039 8 103 8.0 0.0 0.00 0.00 0.05 79 1012.6
20260509164529 8 109 6.4 0.0 0.00 0.00 0.05 78 1012.7
20260509163029 8 105 4.8 0.0 0.00 0.00 0.05 78 1012.8
20260509161526 8 80 6.4 0.0 0.00 0.00 0.05 79 1013.1
20260509160026 8 79 6.4 0.0 0.00 0.00 0.05 79 1013.2
20260509154524 8 86 6.4 0.0 0.00 0.00 0.03 79 1013.4
20260509153022 8 105 3.2 0.0 0.00 0.00 0.03 78 1013.6
20260509151521 9 119 1.6 0.0 0.00 0.00 0.03 77 1013.8
20260509150022 9 199 0.0 0.0 0.00 0.00 0.03 76 1014.0
20260509144517 9 202 0.0 0.0 0.00 0.00 0.03 74 1014.2
20260509143017 10 202 1.6 0.0 0.00 0.00 0.00 71 1014.2
20260509141520 10 147 0.0 0.0 0.00 0.00 0.00 67 1014.3
20260509140018 10 141 0.0 0.0 0.00 0.00 0.00 62 1014.5
20260509134512 11 189 0.0 0.0 0.00 0.00 0.00 60 1014.5
20260509133012 11 189 0.0 0.0 0.00 0.00 0.00 61 1014.6
20260509131516 11 191 0.0 0.0 0.00 0.00 0.00 61 1014.5